Knox, IN

5:37 AM CDT on March 25, 2017 (GMT -0500)
Starke County

Weather History for KOXI - September, 2013

Change the Weather History Date:

Saturday, September 14, 2013

  Actual Average (KSBN) Record (KSBN)
Temperature  
Mean Temperature 52 °F -  
Max Temperature 96 °F 74 °F 98 °F (1897)
Min Temperature 35 °F 55 °F 36 °F (1899)
Degree Days  
Heating Degree Days 13    
Growing Degree Days 2 (Base 50)    
Moisture  
Dew Point 39 °F    
Average Humidity 68    
Maximum Humidity 99    
Minimum Humidity 26    
Precipitation  
Precipitation 0.00 in - - ()
Sea Level Pressure  
Sea Level Pressure 30.14 in    
Wind  
Wind Speed 2 mph (SSE)    
Max Wind Speed 8 mph    
Max Gust Speed -    
Visibility 9 miles    
Events      
Averages and records for this station are not official NWS values.
T = Trace of Precipitation, MM = Missing Value Source: NWS Daily Summary

Daily Weather History Graph

Daily Weather History Graph

Search for Another Location

Airport or City:

Trip Planner

Search our weather history database for the weather conditions in past years. The results will help you decide how hot, cold, wet, or windy it might be!

Date:

Astronomy

Sep. 14, 2013 Rise Set
Actual Time 6:26 AM CDT 6:57 PM CDT
Civil Twilight 5:58 AM CDT 7:24 PM CDT
Nautical Twilight 5:25 AM CDT 7:57 PM CDT
Astronomical Twilight 4:52 AM CDT 8:31 PM CDT
Moon 3:40 PM CDT (9/14) 12:54 AM CDT (9/14)
Length of Visible Light 13h 26m
Length of Day
12h 30m
Waxing Gibbous, 72% of the Moon is Illuminated
Sep 14
Waxing Gibbous
Sep 19
Full
Sep 26
Last Quarter
Oct 4
New
Oct 11
First Quarter

Hourly Weather History & Observations

Time (CDT) Temp. Windchill Dew Point Humidity Pressure Visibility Wind Dir Wind Speed Gust Speed Precip Events Conditions
12:15 AM 41.2 °F - 39.9 °F 95% 30.14 in 10.0 mi Calm Calm - N/A   Clear
12:35 AM 41.0 °F 39.0 °F 40.1 °F 97% 30.14 in 10.0 mi ESE 3.5 mph - N/A   Clear
12:55 AM 41.9 °F - 41.0 °F 97% 30.14 in 10.0 mi Calm Calm - N/A   Clear
1:15 AM 41.0 °F - 40.3 °F 97% 30.14 in 10.0 mi Calm Calm - N/A   Clear
1:35 AM 40.5 °F - 39.7 °F 97% 30.15 in 10.0 mi Calm Calm - N/A   Clear
1:55 AM 39.6 °F - 38.8 °F 97% 30.15 in 0.8 mi Calm Calm - N/A   Unknown
2:15 AM 39.4 °F - 38.8 °F 98% 30.15 in 10.0 mi Calm Calm - N/A   Clear
2:35 AM 39.2 °F - 38.7 °F 98% 30.15 in 10.0 mi Calm Calm - N/A   Clear
2:55 AM 39.0 °F - 38.3 °F 97% 30.15 in 10.0 mi Calm Calm - N/A   Clear
3:15 AM 38.3 °F - 37.6 °F 97% 30.15 in 10.0 mi Calm Calm - N/A   Clear
3:35 AM 38.1 °F - 37.6 °F 98% 30.15 in 1.5 mi Calm Calm - N/A   Unknown
3:55 AM 37.0 °F - 36.5 °F 98% 30.15 in 10.0 mi Calm Calm - N/A   Clear
4:15 AM 37.2 °F - 36.7 °F 98% 30.16 in 0.5 mi Calm Calm - N/A   Unknown
4:35 AM 37.6 °F - 37.0 °F 98% 30.16 in 0.2 mi Calm Calm - N/A   Unknown
4:55 AM 37.2 °F - 36.9 °F 99% 30.16 in 0.5 mi Calm Calm - N/A   Unknown
5:15 AM 37.0 °F - 36.5 °F 98% 30.17 in 10.0 mi Calm Calm - N/A   Clear
5:35 AM 36.5 °F - 36.0 °F 98% 30.16 in 0.8 mi Calm Calm - N/A   Unknown
5:55 AM 36.1 °F - 35.8 °F 99% 30.17 in 10.0 mi Calm Calm - N/A   Clear
6:15 AM 35.8 °F - 35.4 °F 99% 30.17 in 10.0 mi Calm Calm - N/A   Clear
6:35 AM 35.8 °F - 35.4 °F 99% 30.18 in 0.2 mi Calm Calm - N/A   Unknown
6:55 AM 35.8 °F - 35.2 °F 98% 30.18 in 0.2 mi Calm Calm - N/A   Mostly Cloudy
7:15 AM 36.3 °F - 36.0 °F 99% 30.19 in 0.8 mi Calm Calm - N/A   Mostly Cloudy
7:35 AM 37.8 °F - 37.4 °F 99% 30.20 in 0.5 mi Calm Calm - N/A   Unknown
7:55 AM 40.6 °F - 40.1 °F 98% 30.20 in 7.0 mi Calm Calm - N/A   Clear
8:15 AM 43.9 °F - 43.2 °F 97% 30.20 in 10.0 mi Calm Calm - N/A   Clear
8:35 AM 47.1 °F - 46.4 °F 97% 30.20 in 10.0 mi SSW 3.5 mph - N/A   Clear
8:55 AM 51.3 °F - 47.5 °F 87% 30.20 in 10.0 mi South 4.6 mph - N/A   Clear
9:15 AM 54.1 °F - 45.5 °F 73% 30.20 in 10.0 mi SSW 5.8 mph - N/A   Clear
9:35 AM 56.3 °F - 44.1 °F 64% 30.21 in 10.0 mi SSW 5.8 mph - N/A   Clear
9:55 AM 57.4 °F - 42.3 °F 57% 30.21 in 10.0 mi South 5.8 mph - N/A   Clear
10:15 AM 58.8 °F - 40.6 °F 51% 30.20 in 10.0 mi SSE 4.6 mph - N/A   Clear
10:35 AM 59.7 °F - 38.7 °F 46% 30.19 in 10.0 mi SE 3.5 mph - N/A   Clear
10:55 AM 60.8 °F - 37.4 °F 42% 30.20 in 10.0 mi South 4.6 mph - N/A   Clear
11:15 AM 61.0 °F - 37.8 °F 42% 30.20 in 10.0 mi SSW 6.9 mph - N/A   Clear
11:35 AM 62.2 °F - 37.6 °F 40% 30.19 in 10.0 mi South 5.8 mph - N/A   Clear
11:55 AM 62.8 °F - 36.7 °F 38% 30.18 in 10.0 mi SSW 5.8 mph - N/A   Clear
12:15 PM 63.5 °F - 36.9 °F 37% 30.18 in 10.0 mi SSW 6.9 mph - N/A   Clear
12:35 PM 64.4 °F - 35.8 °F 35% 30.18 in 10.0 mi SW 4.6 mph - N/A   Clear
12:55 PM 65.5 °F - 35.8 °F 33% 30.17 in 10.0 mi SE 4.6 mph - N/A   Clear
1:15 PM 66.0 °F - 35.2 °F 32% 30.16 in 10.0 mi SE 4.6 mph - N/A   Clear
1:35 PM 66.2 °F - 34.9 °F 31% 30.15 in 10.0 mi SSE 5.8 mph - N/A   Clear
1:55 PM 66.9 °F - 34.7 °F 30% 30.14 in 10.0 mi SSE 6.9 mph - N/A   Clear
2:15 PM 67.8 °F - 35.2 °F 30% 30.13 in 10.0 mi South 5.8 mph - N/A   Clear
2:35 PM 68.7 °F - 35.1 °F 29% 30.13 in 10.0 mi SSW 6.9 mph - N/A   Clear
2:55 PM 68.7 °F - 34.5 °F 28% 30.12 in 10.0 mi Calm Calm - N/A   Clear
3:15 PM 68.5 °F - 34.5 °F 29% 30.12 in 10.0 mi SSE 3.5 mph - N/A   Clear
3:35 PM 68.7 °F - 34.9 °F 29% 30.11 in 10.0 mi WSW 4.6 mph - N/A   Clear
3:55 PM 68.9 °F - 34.5 °F 28% 30.11 in 10.0 mi SSE 6.9 mph - N/A   Clear
4:15 PM 69.3 °F - 34.0 °F 27% 30.11 in 10.0 mi SSW 8.1 mph - N/A   Clear
4:35 PM 68.2 °F - 33.1 °F 27% 30.10 in 10.0 mi WSW 4.6 mph - N/A   Clear
4:55 PM 68.0 °F - 33.6 °F 28% 30.10 in 10.0 mi SW 5.8 mph - N/A   Clear
5:15 PM 69.1 °F - 32.9 °F 26% 30.10 in 10.0 mi SSW 4.6 mph - N/A   Clear
5:35 PM 68.5 °F - 31.8 °F 26% 30.10 in 10.0 mi South 3.5 mph - N/A   Clear
5:55 PM 67.1 °F - 32.7 °F 28% 30.10 in 10.0 mi SSW 3.5 mph - N/A   Clear
6:15 PM 66.4 °F - 34.9 °F 31% 30.09 in 10.0 mi SSE 4.6 mph - N/A   Clear
6:35 PM 65.3 °F - 37.2 °F 35% 30.08 in 10.0 mi SE 3.5 mph - N/A   Clear
6:55 PM 63.1 °F - 40.1 °F 43% 30.08 in 10.0 mi SE 3.5 mph - N/A   Clear
7:15 PM 60.4 °F - 41.9 °F 50% 30.08 in 10.0 mi SE 3.5 mph - N/A   Clear
7:35 PM 57.0 °F - 43.7 °F 61% 30.09 in 10.0 mi SE 3.5 mph - N/A   Clear
7:55 PM 54.3 °F - 43.9 °F 68% 30.09 in 10.0 mi ESE 4.6 mph - N/A   Clear
8:15 PM 52.5 °F - 43.5 °F 71% 30.09 in 10.0 mi SE 3.5 mph - N/A   Clear
8:35 PM 50.9 °F - 43.5 °F 76% 30.09 in 10.0 mi Calm Calm - N/A   Clear
8:55 PM 50.4 °F - 44.1 °F 79% 30.09 in 10.0 mi ESE 4.6 mph - N/A   Clear
9:15 PM 48.2 °F - 43.2 °F 83% 30.09 in 10.0 mi ESE 3.5 mph - N/A   Clear
9:35 PM 47.7 °F - 43.2 °F 84% 30.09 in 10.0 mi SE 4.6 mph - N/A   Clear
9:55 PM 48.0 °F - 43.3 °F 84% 30.08 in 10.0 mi SE 4.6 mph - N/A   Clear
10:15 PM 47.5 °F - 43.2 °F 85% 30.08 in 10.0 mi SE 4.6 mph - N/A   Clear
10:35 PM 48.0 °F - 43.2 °F 83% 30.08 in 10.0 mi SE 5.8 mph - N/A   Clear
10:55 PM 48.2 °F - 43.3 °F 83% 30.08 in 10.0 mi SE 3.5 mph - N/A   Clear
11:15 PM 47.8 °F - 42.8 °F 83% 30.07 in 10.0 mi SE 5.8 mph - N/A   Clear
11:35 PM 46.9 °F - 42.4 °F 84% 30.07 in 10.0 mi SE 3.5 mph - N/A   Clear
11:55 PM 46.2 °F 45.0 °F 41.9 °F 85% 30.07 in 10.0 mi SE 3.5 mph - N/A   Clear